| time (UTC) | temp F | wind direction | speed MPH | gust MPH | rain 1hr in | rain 24hr in | rain mn in | humidity % | barometer mb |
| 20260905185624 | 82 | 164 | 0.0 | 0.0 | 0.00 | 0.00 | 0.00 | 100 | 1008.4 |
| 20260905185105 | 82 | 164 | 0.0 | 1.0 | 0.00 | 0.00 | 0.00 | 100 | 1008.6 |
| 20260905184607 | 82 | 164 | 0.0 | 1.0 | 0.00 | 0.00 | 0.00 | 100 | 1008.8 |
| 20260905184109 | 82 | 173 | 0.0 | 0.0 | 0.00 | 0.00 | 0.00 | 100 | 1009.0 |
| 20260905183557 | 81 | 173 | 0.0 | 0.0 | 0.00 | 0.00 | 0.00 | 100 | 1009.1 |
| 20260905183325 | 81 | 173 | 0.0 | 0.0 | 0.00 | 0.00 | 0.00 | 100 | 1009.3 |
| 20260905182548 | 82 | 173 | 0.0 | 0.0 | 0.00 | 0.00 | 0.00 | 100 | 1009.6 |
| 20260905182038 | 82 | 173 | 0.0 | 0.0 | 0.00 | 0.00 | 0.00 | 100 | 1009.8 |
| 20260905181534 | 82 | 173 | 0.0 | 0.0 | 0.00 | 0.00 | 0.00 | 100 | 1009.9 |
| 20260905181310 | 81 | 173 | 0.0 | 0.0 | 0.00 | 0.00 | 0.00 | 100 | 1010.0 |
| 20260905180518 | 81 | 173 | 0.0 | 0.0 | 0.00 | 0.00 | 0.00 | 100 | 1010.2 |
| 20260905180007 | 81 | 173 | 0.0 | 0.0 | 0.00 | 0.00 | 0.00 | 100 | 1010.4 |
| 20260905175506 | 81 | 173 | 0.0 | 0.0 | 0.00 | 0.00 | 0.00 | 100 | 1010.4 |
| 20260905175006 | 81 | 173 | 0.0 | 0.0 | 0.00 | 0.00 | 0.00 | 100 | 1010.4 |
| 20260905174440 | 81 | 173 | 0.0 | 0.0 | 0.00 | 0.00 | 0.00 | 100 | 1010.5 |
| 20260905173939 | 81 | 173 | 0.0 | 0.0 | 0.00 | 0.00 | 0.00 | 100 | 1010.4 |
| 20260905173435 | 81 | 173 | 0.0 | 0.0 | 0.00 | 0.00 | 0.00 | 100 | 1010.4 |
| 20260905173202 | 81 | 173 | 0.0 | 0.0 | 0.00 | 0.00 | 0.00 | 100 | 1010.5 |
| 20260905172638 | 81 | 173 | 0.0 | 0.0 | 0.00 | 0.00 | 0.00 | 100 | 1010.5 |
| 20260905171908 | 81 | 173 | 0.0 | 0.0 | 0.00 | 0.00 | 0.00 | 100 | 1010.4 |
| 20260905171408 | 82 | 173 | 0.0 | 0.0 | 0.00 | 0.00 | 0.00 | 100 | 1010.4 |
| 20260905171147 | 82 | 173 | 0.0 | 0.0 | 0.00 | 0.00 | 0.00 | 100 | 1010.4 |
| 20260905170403 | 82 | 173 | 0.0 | 1.0 | 0.00 | 0.00 | 0.00 | 100 | 1010.5 |
| 20260905165854 | 82 | 173 | 0.0 | 1.0 | 0.00 | 0.00 | 0.00 | 100 | 1010.6 |
| 20260905165352 | 82 | 175 | 0.0 | 3.0 | 0.00 | 0.00 | 0.00 | 100 | 1010.6 |
| 20260905164852 | 82 | 175 | 0.0 | 3.0 | 0.00 | 0.00 | 0.00 | 100 | 1010.5 |
| 20260905164348 | 82 | 174 | 0.0 | 0.0 | 0.00 | 0.00 | 0.00 | 100 | 1010.4 |
| 20260905163842 | 82 | 174 | 0.0 | 0.0 | 0.00 | 0.00 | 0.00 | 100 | 1010.4 |
| 20260905163344 | 82 | 174 | 0.0 | 0.0 | 0.00 | 0.00 | 0.00 | 100 | 1010.3 |
| 20260905162840 | 82 | 174 | 0.0 | 1.0 | 0.00 | 0.00 | 0.00 | 100 | 1010.1 |
| 20260905162327 | 82 | 174 | 0.0 | 1.0 | 0.00 | 0.00 | 0.00 | 100 | 1010.1 |
| 20260905161823 | 82 | 173 | 0.0 | 0.0 | 0.00 | 0.00 | 0.00 | 100 | 1010.1 |
| 20260905161533 | 82 | 174 | 0.0 | 0.0 | 0.00 | 0.00 | 0.00 | 100 | 1010.2 |
| 20260905161419 | 82 | 174 | 0.0 | 0.0 | 0.00 | 0.00 | 0.00 | 100 | 1010.1 |
| 20260905160304 | 82 | 174 | 0.0 | 1.0 | 0.00 | 0.00 | 0.00 | 100 | 1010.2 |
| 20260905160253 | 82 | 174 | 0.0 | 2.0 | 0.00 | 0.00 | 0.00 | 100 | 1010.3 |
| 20260905155241 | 82 | 173 | 0.0 | 5.0 | 0.00 | 0.00 | 0.00 | 100 | 1010.2 |
| 20260905154738 | 82 | 175 | 0.0 | 5.0 | 0.00 | 0.00 | 0.00 | 100 | 1010.3 |
| 20260905154229 | 82 | 107 | 0.0 | 5.0 | 0.00 | 0.00 | 0.00 | 100 | 1010.4 |
| 20260905153731 | 83 | 12 | 0.0 | 5.0 | 0.00 | 0.00 | 0.00 | 100 | 1010.5 |
| 20260905153222 | 83 | 320 | 0.0 | 3.0 | 0.00 | 0.00 | 0.00 | 100 | 1010.5 |
| 20260905152208 | 83 | 317 | 0.0 | 2.0 | 0.00 | 0.00 | 0.00 | 100 | 1010.6 |
| 20260905152155 | 83 | 315 | 0.0 | 4.0 | 0.00 | 0.00 | 0.00 | 100 | 1010.5 |
| 20260905151204 | 83 | 43 | 0.0 | 4.0 | 0.00 | 0.00 | 0.00 | 100 | 1010.6 |
| 20260905150657 | 83 | 307 | 0.0 | 1.0 | 0.00 | 0.00 | 0.00 | 100 | 1010.5 |
| 20260905150157 | 83 | 340 | 0.0 | 3.0 | 0.00 | 0.00 | 0.00 | 100 | 1010.5 |
| 20260905145655 | 83 | 340 | 0.0 | 1.0 | 0.00 | 0.00 | 0.00 | 100 | 1010.6 |
| 20260905145157 | 84 | 339 | 0.0 | 3.0 | 0.00 | 0.00 | 0.00 | 100 | 1010.7 |
| 20260905144657 | 84 | 340 | 0.0 | 7.0 | 0.00 | 0.00 | 0.00 | 100 | 1010.5 |
| 20260905144158 | 85 | 338 | 0.0 | 7.0 | 0.00 | 0.00 | 0.00 | 100 | 1010.4 |
| 20260905143653 | 85 | 271 | 0.0 | 3.0 | 0.00 | 0.00 | 0.00 | 100 | 1010.2 |
| 20260905143142 | 85 | 209 | 0.0 | 3.0 | 0.00 | 0.00 | 0.00 | 100 | 1010.0 |
| 20260905142643 | 85 | 209 | 0.0 | 3.0 | 0.00 | 0.00 | 0.00 | 100 | 1009.9 |
| 20260905142336 | 85 | 210 | 0.0 | 5.0 | 0.00 | 0.00 | 0.00 | 100 | 1010.0 |
| 20260905141835 | 85 | 209 | 0.0 | 5.0 | 0.00 | 0.00 | 0.00 | 100 | 1010.1 |
| 20260905141103 | 85 | 105 | 0.0 | 5.0 | 0.00 | 0.00 | 0.00 | 100 | 1010.0 |
| 20260905140555 | 85 | 348 | 0.0 | 5.0 | 0.00 | 0.00 | 0.00 | 100 | 1009.9 |
| 20260905140059 | 84 | 349 | 0.0 | 2.0 | 0.00 | 0.00 | 0.00 | 100 | 1009.9 |
| 20260905135545 | 84 | 349 | 0.0 | 6.0 | 0.00 | 0.00 | 0.00 | 100 | 1010.0 |
| 20260905135047 | 84 | 348 | 0.0 | 6.0 | 0.00 | 0.00 | 0.00 | 100 | 1010.0 |
| 20260905134534 | 84 | 252 | 0.0 | 2.0 | 0.00 | 0.00 | 0.00 | 100 | 1010.0 |
| 20260905134028 | 84 | 252 | 0.0 | 6.0 | 0.00 | 0.00 | 0.00 | 100 | 1009.9 |
| 20260905133513 | 84 | 250 | 0.0 | 6.0 | 0.00 | 0.00 | 0.00 | 100 | 1010.1 |
| 20260905133006 | 84 | 15 | 0.0 | 1.0 | 0.00 | 0.00 | 0.00 | 100 | 1010.1 |
| 20260905132727 | 84 | 0 | 0.0 | 2.0 | 0.00 | 0.00 | 0.00 | 100 | 1009.9 |
| 20260905131948 | 84 | 0 | 0.0 | 6.0 | 0.00 | 0.00 | 0.00 | 100 | 1009.8 |
| 20260905131427 | 84 | 0 | 0.0 | 6.0 | 0.00 | 0.00 | 0.00 | 100 | 1009.8 |
| 20260905131150 | 83 | 271 | 0.0 | 4.0 | 0.00 | 0.00 | 0.00 | 100 | 1009.7 |
| 20260905130417 | 83 | 9 | 0.0 | 5.0 | 0.00 | 0.00 | 0.00 | 100 | 1009.6 |
| 20260905125915 | 83 | 5 | 0.0 | 5.0 | 0.00 | 0.00 | 0.00 | 100 | 1009.6 |
| 20260905125405 | 83 | 227 | 0.0 | 2.0 | 0.00 | 0.00 | 0.00 | 100 | 1009.7 |
| 20260905125117 | 83 | 223 | 0.0 | 5.0 | 0.00 | 0.00 | 0.00 | 100 | 1009.6 |
| 20260905124356 | 83 | 223 | 0.0 | 5.0 | 0.00 | 0.00 | 0.00 | 100 | 1009.7 |
| 20260905123857 | 83 | 323 | 0.0 | 5.0 | 0.00 | 0.00 | 0.00 | 100 | 1009.7 |
| 20260905123343 | 82 | 215 | 0.0 | 5.0 | 0.00 | 0.00 | 0.00 | 100 | 1009.6 |
| 20260905122841 | 82 | 258 | 0.0 | 2.0 | 0.00 | 0.00 | 0.00 | 100 | 1009.6 |
| 20260905122354 | 82 | 81 | 0.0 | 1.0 | 0.00 | 0.00 | 0.00 | 100 | 1009.7 |
| 20260905121842 | 82 | 79 | 0.0 | 1.0 | 0.00 | 0.00 | 0.00 | 100 | 1009.7 |
| 20260905121324 | 82 | 333 | 0.0 | 3.0 | 0.00 | 0.00 | 0.00 | 100 | 1009.6 |
| 20260905120809 | 82 | 333 | 0.0 | 4.0 | 0.00 | 0.00 | 0.00 | 100 | 1009.6 |
| 20260905120302 | 82 | 320 | 0.0 | 4.0 | 0.00 | 0.00 | 0.00 | 100 | 1009.6 |
| 20260905120022 | 82 | 320 | 0.0 | 4.0 | 0.00 | 0.00 | 0.00 | 100 | 1009.5 |
| 20260905115245 | 82 | 312 | 1.0 | 8.0 | 0.00 | 0.00 | 0.00 | 100 | 1009.5 |
| 20260905114747 | 81 | 294 | 1.0 | 8.0 | 0.00 | 0.00 | 0.00 | 100 | 1009.4 |
| 20260905114508 | 81 | 318 | 1.0 | 4.0 | 0.00 | 0.00 | 0.00 | 100 | 1009.4 |
| 20260905113745 | 0 | 0.0 | 0.0 | 0.00 | 0.00 | 0.00 | 1009.4 | ||
| 20260905113201 | 0 | 0.0 | 0.0 | 0.00 | 0.00 | 0.00 | 1009.3 | ||
| 20260905112842 | 0 | 0.0 | 0.0 | 0.00 | 0.00 | 0.00 | 1009.3 | ||
| 20260905112028 | 0 | 0.0 | 0.0 | 0.00 | 0.00 | 0.00 | 1009.2 | ||
| 20260905111445 | 0 | 0.0 | 0.0 | 0.00 | 0.00 | 0.00 | 1009.2 | ||
| 20260905110900 | 0 | 0.0 | 0.0 | 0.00 | 0.00 | 0.00 | 1009.1 | ||
| 20260905110319 | 0 | 0.0 | 0.0 | 0.00 | 0.00 | 0.00 | 1009.1 | ||
| 20260905105737 | 0 | 0.0 | 0.0 | 0.00 | 0.00 | 0.00 | 1008.9 | ||
| 20260905105208 | 0 | 0.0 | 0.0 | 0.00 | 0.00 | 0.00 | 1008.9 | ||
| 20260905104704 | 0 | 0.0 | 0.0 | 0.00 | 0.00 | 0.00 | 1009.0 | ||
| 20260905104132 | 0 | 0.0 | 0.0 | 0.00 | 0.00 | 0.00 | 1008.9 | ||
| 20260905103610 | 0 | 0.0 | 0.0 | 0.00 | 0.00 | 0.00 | 1008.8 | ||
| 20260905103337 | 0 | 0.0 | 0.0 | 0.00 | 0.00 | 0.00 | 1008.7 | ||
| 20260905102607 | 0 | 0.0 | 0.0 | 0.00 | 0.00 | 0.00 | 1008.6 | ||
| 20260905102106 | 0 | 0.0 | 0.0 | 0.00 | 0.00 | 0.00 | 1008.6 | ||
| 20260905101608 | 0 | 0.0 | 0.0 | 0.00 | 0.00 | 0.00 | 1008.5 | ||
| 20260905101106 | 0 | 0.0 | 0.0 | 0.00 | 0.00 | 0.00 | 1008.5 | ||
| 20260905100820 | 0 | 0.0 | 6.0 | 0.00 | 0.00 | 0.00 | 1008.5 | ||
| 20260905100106 | 80 | 34 | 1.0 | 6.0 | 0.00 | 0.00 | 0.00 | 100 | 1008.4 |
| 20260905095549 | 80 | 34 | 1.0 | 6.0 | 0.00 | 0.00 | 0.00 | 100 | 1008.3 |
| 20260905095022 | 80 | 34 | 1.0 | 6.0 | 0.00 | 0.00 | 0.00 | 100 | 1008.4 |
| 20260905094518 | 80 | 332 | 1.0 | 6.0 | 0.00 | 0.00 | 0.00 | 100 | 1008.3 |
| 20260905094242 | 80 | 10 | 1.0 | 6.0 | 0.00 | 0.00 | 0.00 | 100 | 1008.4 |
| 20260905093513 | 80 | 253 | 0.0 | 5.0 | 0.00 | 0.00 | 0.00 | 100 | 1008.3 |
| 20260905093236 | 80 | 240 | 0.0 | 3.0 | 0.00 | 0.00 | 0.00 | 100 | 1008.4 |
| 20260905092509 | 80 | 227 | 0.0 | 5.0 | 0.00 | 0.00 | 0.00 | 100 | 1008.4 |
| 20260905092000 | 79 | 69 | 0.0 | 5.0 | 0.00 | 0.00 | 0.00 | 100 | 1008.3 |
| 20260905091452 | 79 | 350 | 0.0 | 6.0 | 0.00 | 0.00 | 0.00 | 100 | 1008.3 |
| 20260905090952 | 79 | 345 | 0.0 | 5.0 | 0.00 | 0.00 | 0.00 | 100 | 1008.3 |
| 20260905090658 | 78 | 191 | 0.0 | 0.0 | 0.00 | 0.00 | 0.00 | 100 | 1008.4 |
| 20260905090559 | 78 | 313 | 0.0 | 5.0 | 0.00 | 0.00 | 0.00 | 100 | 1008.2 |
| 20260905085710 | 78 | 191 | 0.0 | 4.0 | 0.00 | 0.00 | 0.00 | 100 | 1008.4 |
| 20260905084921 | 78 | 191 | 0.0 | 4.0 | 0.00 | 0.00 | 0.00 | 100 | 1008.3 |
| 20260905084419 | 78 | 235 | 0.0 | 0.0 | 0.00 | 0.00 | 0.00 | 100 | 1008.4 |
| 20260905084155 | 78 | 236 | 0.0 | 0.0 | 0.00 | 0.00 | 0.00 | 100 | 1008.5 |
| 20260905083412 | 78 | 235 | 0.0 | 2.0 | 0.00 | 0.00 | 0.00 | 100 | 1008.5 |
| 20260905082908 | 78 | 236 | 0.0 | 6.0 | 0.00 | 0.00 | 0.00 | 100 | 1008.6 |
| 20260905082409 | 77 | 236 | 0.0 | 6.0 | 0.00 | 0.00 | 0.00 | 100 | 1008.5 |
| 20260905081904 | 77 | 236 | 0.0 | 3.0 | 0.00 | 0.00 | 0.00 | 100 | 1008.6 |
| 20260905081359 | 77 | 236 | 0.0 | 4.0 | 0.00 | 0.00 | 0.00 | 100 | 1008.7 |
| 20260905080858 | 77 | 236 | 0.0 | 7.0 | 0.00 | 0.00 | 0.00 | 100 | 1008.6 |
| 20260905080404 | 77 | 236 | 0.0 | 7.0 | 0.00 | 0.00 | 0.00 | 100 | 1008.7 |
| 20260905075841 | 77 | 236 | 0.0 | 4.0 | 0.00 | 0.00 | 0.00 | 100 | 1008.8 |
| 20260905075342 | 77 | 236 | 1.0 | 6.0 | 0.00 | 0.00 | 0.00 | 100 | 1008.8 |
| 20260905075049 | 77 | 236 | 0.0 | 6.0 | 0.00 | 0.00 | 0.00 | 100 | 1008.8 |
| 20260905074323 | 77 | 236 | 0.0 | 3.0 | 0.00 | 0.00 | 0.00 | 100 | 1008.8 |
| 20260905073823 | 77 | 236 | 0.0 | 3.0 | 0.00 | 0.00 | 0.00 | 100 | 1008.8 |
| 20260905073319 | 77 | 236 | 0.0 | 10.0 | 0.00 | 0.00 | 0.00 | 100 | 1008.8 |
| 20260905072805 | 77 | 236 | 1.0 | 10.0 | 0.00 | 0.00 | 0.00 | 100 | 1008.8 |
| 20260905072311 | 77 | 238 | 0.0 | 5.0 | 0.00 | 0.00 | 0.00 | 100 | 1008.8 |
| 20260905071808 | 78 | 238 | 0.0 | 4.0 | 0.00 | 0.00 | 0.00 | 100 | 1008.9 |
| 20260905071258 | 77 | 238 | 0.0 | 6.0 | 0.00 | 0.01 | 0.00 | 100 | 1008.9 |
| 20260905070800 | 77 | 238 | 1.0 | 6.0 | 0.00 | 0.01 | 0.00 | 100 | 1008.8 |
| 20260905070252 | 77 | 239 | 1.0 | 6.0 | 0.00 | 0.01 | 0.00 | 100 | 1008.8 |
| 20260905065753 | 77 | 239 | 1.0 | 6.0 | 0.00 | 0.01 | 0.00 | 100 | 1008.8 |
| 20260905065252 | 77 | 239 | 1.0 | 7.0 | 0.00 | 0.01 | 0.00 | 100 | 1008.9 |
| 20260905064731 | 77 | 239 | 1.0 | 7.0 | 0.00 | 0.01 | 0.00 | 100 | 1009.0 |
| 20260905064221 | 77 | 238 | 1.0 | 6.0 | 0.00 | 0.01 | 0.00 | 100 | 1009.0 |
| 20260905063719 | 77 | 238 | 1.0 | 6.0 | 0.00 | 0.01 | 0.00 | 100 | 1009.0 |
| 20260905063217 | 77 | 239 | 1.0 | 6.0 | 0.00 | 0.01 | 0.00 | 100 | 1009.0 |
| 20260905062714 | 77 | 239 | 1.0 | 7.0 | 0.00 | 0.01 | 0.00 | 100 | 1009.0 |
| 20260905062213 | 78 | 239 | 1.0 | 7.0 | 0.00 | 0.01 | 0.00 | 100 | 1009.0 |
| 20260905061709 | 78 | 239 | 1.0 | 6.0 | 0.00 | 0.01 | 0.00 | 100 | 1009.1 |
| 20260905061206 | 78 | 239 | 1.0 | 9.0 | 0.00 | 0.01 | 0.00 | 100 | 1009.1 |
| 20260905060707 | 78 | 239 | 1.0 | 9.0 | 0.00 | 0.01 | 0.00 | 100 | 1009.1 |
| 20260905060203 | 78 | 231 | 0.0 | 6.0 | 0.00 | 0.01 | 0.00 | 100 | 1009.2 |
| 20260905055650 | 78 | 231 | 0.0 | 6.0 | 0.00 | 0.02 | 0.00 | 100 | 1009.3 |
| 20260905055143 | 78 | 231 | 0.0 | 3.0 | 0.00 | 0.03 | 0.00 | 100 | 1009.3 |
| 20260905054640 | 78 | 231 | 0.0 | 3.0 | 0.00 | 0.04 | 0.00 | 100 | 1009.4 |
| 20260905054135 | 78 | 231 | 0.0 | 3.0 | 0.00 | 0.05 | 0.00 | 100 | 1009.5 |
| 20260905053637 | 78 | 231 | 0.0 | 3.0 | 0.00 | 0.08 | 0.00 | 100 | 1009.6 |
| 20260905053139 | 78 | 231 | 0.0 | 4.0 | 0.00 | 0.10 | 0.00 | 100 | 1009.7 |
| 20260905052637 | 78 | 231 | 0.0 | 4.0 | 0.00 | 0.13 | 0.00 | 100 | 1009.8 |
| 20260905052135 | 78 | 231 | 0.0 | 6.0 | 0.00 | 0.23 | 0.00 | 100 | 1009.9 |
| 20260905051637 | 78 | 231 | 1.0 | 7.0 | 0.00 | 0.39 | 0.00 | 100 | 1009.8 |
| 20260905051117 | 78 | 230 | 0.0 | 7.0 | 0.00 | 0.62 | 0.00 | 100 | 1009.7 |
| 20260905050609 | 78 | 230 | 0.0 | 4.0 | 0.00 | 0.93 | 0.00 | 100 | 1009.8 |
| 20260905050112 | 78 | 229 | 0.0 | 5.0 | 0.00 | 1.14 | 0.00 | 100 | 1009.9 |
| 20260905045555 | 78 | 229 | 0.0 | 6.0 | 0.00 | 1.21 | 0.00 | 100 | 1010.0 |
| 20260905045051 | 78 | 229 | 1.0 | 6.0 | 0.00 | 1.23 | 0.00 | 100 | 1010.1 |
| 20260905044538 | 78 | 229 | 1.0 | 5.0 | 0.00 | 1.26 | 0.00 | 100 | 1010.1 |
| 20260905044033 | 78 | 229 | 1.0 | 6.0 | 0.00 | 1.26 | 0.00 | 100 | 1010.1 |
| 20260905043530 | 78 | 229 | 1.0 | 6.0 | 0.00 | 1.27 | 0.00 | 100 | 1010.1 |
| 20260905043021 | 78 | 227 | 0.0 | 6.0 | 0.00 | 1.34 | 0.00 | 100 | 1010.1 |
| 20260905042523 | 78 | 227 | 0.0 | 4.0 | 0.00 | 1.35 | 0.00 | 100 | 1010.2 |
| 20260905042237 | 78 | 227 | 0.0 | 4.0 | 0.00 | 1.35 | 0.00 | 100 | 1010.3 |
| 20260905041506 | 78 | 227 | 0.0 | 3.0 | 0.00 | 1.35 | 0.00 | 100 | 1010.3 |
| 20260905041000 | 78 | 227 | 0.0 | 2.0 | 0.00 | 1.35 | 0.00 | 100 | 1010.4 |
| 20260905040455 | 78 | 227 | 0.0 | 0.0 | 0.00 | 1.35 | 0.00 | 100 | 1010.5 |
| 20260905035939 | 78 | 227 | 0.0 | 0.0 | 0.00 | 1.35 | 1.35 | 100 | 1010.5 |
| 20260905035440 | 78 | 227 | 0.0 | 0.0 | 0.00 | 1.35 | 1.35 | 100 | 1010.4 |
| 20260905034920 | 78 | 227 | 0.0 | 0.0 | 0.00 | 1.35 | 1.35 | 100 | 1010.4 |
| 20260905034356 | 78 | 227 | 0.0 | 0.0 | 0.00 | 1.35 | 1.35 | 100 | 1010.4 |
| 20260905033853 | 78 | 227 | 0.0 | 0.0 | 0.00 | 1.35 | 1.35 | 100 | 1010.5 |
| 20260905033556 | 78 | 227 | 0.0 | 0.0 | 0.00 | 1.35 | 1.35 | 100 | 1010.6 |
| 20260905032838 | 78 | 227 | 0.0 | 0.0 | 0.00 | 1.35 | 1.35 | 100 | 1010.5 |
| 20260905032550 | 78 | 227 | 0.0 | 0.0 | 0.00 | 1.35 | 1.35 | 100 | 1010.5 |
| 20260905031825 | 78 | 227 | 0.0 | 0.0 | 0.00 | 1.35 | 1.35 | 100 | 1010.6 |
| 20260905031310 | 78 | 227 | 0.0 | 0.0 | 0.00 | 1.35 | 1.35 | 100 | 1010.6 |
| 20260905030805 | 78 | 227 | 0.0 | 0.0 | 0.00 | 1.35 | 1.35 | 100 | 1010.5 |
| 20260905030259 | 79 | 227 | 0.0 | 0.0 | 0.00 | 1.35 | 1.35 | 100 | 1010.4 |
| 20260905025756 | 79 | 227 | 0.0 | 0.0 | 0.00 | 1.35 | 1.35 | 100 | 1010.4 |
| 20260905025249 | 79 | 227 | 0.0 | 0.0 | 0.00 | 1.35 | 1.35 | 100 | 1010.6 |
| 20260905024741 | 79 | 227 | 0.0 | 0.0 | 0.00 | 1.35 | 1.35 | 100 | 1010.7 |
| 20260905024509 | 79 | 227 | 0.0 | 0.0 | 0.00 | 1.35 | 1.35 | 100 | 1010.8 |
| 20260905023711 | 79 | 227 | 0.0 | 0.0 | 0.00 | 1.35 | 1.35 | 100 | 1010.7 |
| 20260905023206 | 79 | 227 | 0.0 | 0.0 | 0.00 | 1.35 | 1.35 | 100 | 1010.7 |
| 20260905022708 | 79 | 227 | 0.0 | 0.0 | 0.00 | 1.35 | 1.35 | 100 | 1011.0 |
| 20260905022617 | 79 | 227 | 0.0 | 0.0 | 0.00 | 1.35 | 1.35 | 100 | 1010.9 |
| 20260905021849 | 79 | 227 | 0.0 | 0.0 | 0.00 | 1.35 | 1.35 | 100 | 1010.9 |
| 20260905021101 | 79 | 227 | 0.0 | 0.0 | 0.00 | 1.35 | 1.35 | 100 | 1010.8 |
| 20260905020555 | 79 | 227 | 0.0 | 0.0 | 0.00 | 1.35 | 1.35 | 100 | 1010.9 |
| 20260905020100 | 79 | 227 | 0.0 | 0.0 | 0.00 | 1.35 | 1.35 | 100 | 1010.8 |
| 20260905015530 | 79 | 227 | 0.0 | 0.0 | 0.00 | 1.35 | 1.35 | 100 | 1010.7 |
| 20260905015237 | 79 | 227 | 0.0 | 2.0 | 0.00 | 1.35 | 1.35 | 100 | 1010.7 |
| 20260905014510 | 79 | 227 | 0.0 | 2.0 | 0.00 | 1.35 | 1.35 | 100 | 1010.5 |
| 20260905013958 | 79 | 227 | 0.0 | 0.0 | 0.00 | 1.35 | 1.35 | 100 | 1010.4 |
| 20260905013453 | 80 | 227 | 0.0 | 0.0 | 0.00 | 1.35 | 1.35 | 100 | 1010.5 |
| 20260905012947 | 80 | 227 | 0.0 | 0.0 | 0.00 | 1.35 | 1.35 | 100 | 1010.6 |
| 20260905012440 | 80 | 227 | 0.0 | 0.0 | 0.00 | 1.35 | 1.35 | 100 | 1010.6 |
| 20260905011909 | 80 | 227 | 0.0 | 0.0 | 0.00 | 1.35 | 1.35 | 100 | 1010.5 |
| 20260905011415 | 80 | 227 | 0.0 | 0.0 | 0.00 | 1.35 | 1.35 | 100 | 1010.5 |
| 20260905010855 | 80 | 227 | 0.0 | 0.0 | 0.00 | 1.35 | 1.35 | 100 | 1010.4 |
| 20260905010413 | 80 | 227 | 0.0 | 0.0 | 0.00 | 1.35 | 1.35 | 100 | 1010.4 |
| 20260905005857 | 81 | 227 | 0.0 | 0.0 | 0.00 | 1.35 | 1.35 | 100 | 1010.4 |
| 20260905005350 | 81 | 227 | 0.0 | 0.0 | 0.00 | 1.35 | 1.35 | 100 | 1010.4 |
| 20260905004846 | 81 | 227 | 0.0 | 0.0 | 0.00 | 1.35 | 1.35 | 100 | 1010.3 |
| 20260905004341 | 81 | 227 | 0.0 | 0.0 | 0.00 | 1.35 | 1.35 | 100 | 1010.3 |
| 20260905003841 | 81 | 227 | 0.0 | 0.0 | 0.00 | 1.35 | 1.35 | 100 | 1010.3 |
| 20260905003554 | 81 | 227 | 0.0 | 0.0 | 0.00 | 1.35 | 1.35 | 100 | 1010.4 |
| 20260905002828 | 82 | 227 | 0.0 | 2.0 | 0.00 | 1.35 | 1.35 | 100 | 1010.4 |
| 20260905002305 | 82 | 227 | 0.0 | 2.0 | 0.00 | 1.35 | 1.35 | 100 | 1010.4 |
| 20260905001750 | 82 | 227 | 0.0 | 0.0 | 0.00 | 1.35 | 1.35 | 100 | 1010.1 |
| 20260905001256 | 82 | 227 | 0.0 | 0.0 | 0.00 | 1.35 | 1.35 | 100 | 1010.1 |
| 20260905000743 | 82 | 227 | 0.0 | 0.0 | 0.00 | 1.35 | 1.35 | 100 | 1010.1 |
| 20260905000243 | 82 | 227 | 0.0 | 0.0 | 0.00 | 1.35 | 1.35 | 100 | 1010.1 |
| 20260905000233 | 83 | 227 | 0.0 | 0.0 | 0.00 | 1.35 | 1.35 | 100 | 1009.9 |
| 20260904235236 | 83 | 227 | 0.0 | 0.0 | 0.00 | 1.35 | 1.35 | 100 | 1009.9 |
| 20260904234724 | 83 | 227 | 0.0 | 0.0 | 0.00 | 1.35 | 1.35 | 100 | 1009.8 |
| 20260904234222 | 83 | 227 | 0.0 | 0.0 | 0.00 | 1.35 | 1.35 | 100 | 1009.7 |
| 20260904233720 | 84 | 227 | 0.0 | 0.0 | 0.00 | 1.35 | 1.35 | 100 | 1009.6 |
| 20260904233216 | 84 | 227 | 0.0 | 0.0 | 0.00 | 1.35 | 1.35 | 100 | 1009.6 |
| 20260904232706 | 84 | 227 | 0.0 | 0.0 | 0.00 | 1.35 | 1.35 | 100 | 1009.5 |
| 20260904232209 | 85 | 227 | 0.0 | 0.0 | 0.00 | 1.35 | 1.35 | 100 | 1009.5 |
| 20260904231713 | 85 | 227 | 0.0 | 0.0 | 0.00 | 1.35 | 1.35 | 100 | 1009.6 |
| 20260904231431 | 85 | 227 | 0.0 | 1.0 | 0.00 | 1.35 | 1.35 | 100 | 1009.6 |
| 20260904230925 | 86 | 227 | 0.0 | 1.0 | 0.00 | 1.35 | 1.35 | 100 | 1009.5 |
| 20260904230422 | 86 | 227 | 0.0 | 0.0 | 0.00 | 1.35 | 1.35 | 100 | 1009.6 |
| 20260904225616 | 87 | 227 | 0.0 | 0.0 | 0.00 | 1.35 | 1.35 | 100 | 1009.7 |
| 20260904225117 | 87 | 227 | 0.0 | 0.0 | 0.00 | 1.35 | 1.35 | 100 | 1009.7 |
| 20260904224604 | 87 | 227 | 0.0 | 0.0 | 0.00 | 1.35 | 1.35 | 100 | 1009.8 |
| 20260904224106 | 88 | 227 | 0.0 | 0.0 | 0.00 | 1.35 | 1.35 | 100 | 1009.9 |
| 20260904223534 | 88 | 227 | 0.0 | 0.0 | 0.00 | 1.35 | 1.35 | 100 | 1010.1 |
| 20260904223036 | 89 | 227 | 0.0 | 0.0 | 0.00 | 1.35 | 1.35 | 100 | 1010.4 |
| 20260904222741 | 89 | 227 | 0.0 | 3.0 | 0.00 | 1.35 | 1.35 | 100 | 1010.5 |
| 20260904221950 | 89 | 227 | 0.0 | 3.0 | 0.00 | 1.35 | 1.35 | 100 | 1010.7 |
| 20260904221454 | 89 | 227 | 0.0 | 0.0 | 0.00 | 1.35 | 1.35 | 100 | 1010.9 |
| 20260904221213 | 90 | 227 | 0.0 | 0.0 | 0.00 | 1.35 | 1.35 | 100 | 1010.9 |
| 20260904220713 | 90 | 227 | 0.0 | 0.0 | 0.00 | 1.35 | 1.35 | 100 | 1010.7 |
| 20260904215919 | 90 | 227 | 0.0 | 0.0 | 0.00 | 1.35 | 1.35 | 100 | 1010.8 |
| 20260904215408 | 90 | 227 | 0.0 | 0.0 | 0.00 | 1.35 | 1.35 | 100 | 1011.0 |
| 20260904215142 | 90 | 227 | 0.0 | 0.0 | 0.00 | 1.35 | 1.35 | 100 | 1011.0 |
| 20260904214357 | 90 | 227 | 0.0 | 0.0 | 0.00 | 1.35 | 1.35 | 100 | 1010.7 |
| 20260904213849 | 90 | 227 | 0.0 | 0.0 | 0.00 | 1.35 | 1.35 | 100 | 1010.8 |
| 20260904213338 | 90 | 227 | 0.0 | 0.0 | 0.00 | 1.35 | 1.35 | 100 | 1010.9 |
| 20260904212837 | 91 | 227 | 0.0 | 0.0 | 0.00 | 1.35 | 1.35 | 100 | 1010.8 |
| 20260904212316 | 90 | 227 | 0.0 | 0.0 | 0.00 | 1.35 | 1.35 | 100 | 1010.6 |
| 20260904211808 | 89 | 227 | 0.0 | 0.0 | 0.00 | 1.35 | 1.35 | 100 | 1010.5 |
| 20260904211302 | 89 | 227 | 0.0 | 0.0 | 0.00 | 1.35 | 1.35 | 100 | 1010.6 |
| 20260904210800 | 89 | 227 | 0.0 | 0.0 | 0.00 | 1.35 | 1.35 | 100 | 1010.7 |
| 20260904210258 | 89 | 227 | 0.0 | 0.0 | 0.00 | 1.35 | 1.35 | 100 | 1010.8 |
| 20260904205741 | 89 | 227 | 0.0 | 0.0 | 0.00 | 1.35 | 1.35 | 100 | 1010.6 |
| 20260904205242 | 89 | 227 | 0.0 | 0.0 | 0.00 | 1.35 | 1.35 | 100 | 1010.4 |
| 20260904204737 | 90 | 227 | 0.0 | 0.0 | 0.00 | 1.35 | 1.35 | 3 | 1010.3 |
| 20260904204228 | 90 | 227 | 0.0 | 0.0 | 0.00 | 1.35 | 1.35 | 7 | 1010.6 |
| 20260904203719 | 91 | 227 | 0.0 | 0.0 | 0.00 | 1.35 | 1.35 | 8 | 1010.5 |
| 20260904203212 | 91 | 227 | 0.0 | 0.0 | 0.00 | 1.35 | 1.35 | 12 | 1010.6 |
| 20260904202657 | 91 | 227 | 0.0 | 0.0 | 0.00 | 1.35 | 1.35 | 16 | 1010.4 |
| 20260904202157 | 92 | 227 | 0.0 | 0.0 | 0.00 | 1.35 | 1.35 | 19 | 1010.5 |
| 20260904201648 | 92 | 227 | 0.0 | 0.0 | 0.00 | 1.35 | 1.35 | 20 | 1010.3 |
| 20260904201140 | 93 | 227 | 0.0 | 0.0 | 0.00 | 1.35 | 1.35 | 19 | 1010.5 |
| 20260904200640 | 93 | 227 | 0.0 | 2.0 | 0.00 | 1.35 | 1.35 | 17 | 1010.5 |
| 20260904200121 | 93 | 227 | 0.0 | 2.0 | 0.00 | 1.35 | 1.35 | 18 | 1010.7 |
| 20260904195855 | 93 | 227 | 0.0 | 2.0 | 0.00 | 1.35 | 1.35 | 17 | 1010.7 |
| 20260904195607 | 93 | 227 | 0.0 | 2.0 | 0.00 | 1.35 | 1.35 | 17 | 1010.7 |
| 20260904195042 | 92 | 227 | 0.0 | 4.0 | 0.00 | 1.35 | 1.35 | 17 | 1010.7 |
| 20260904194030 | 92 | 227 | 0.0 | 4.0 | 0.00 | 1.35 | 1.35 | 17 | 1010.8 |
| 20260904193513 | 92 | 227 | 0.0 | 2.0 | 0.00 | 1.35 | 1.35 | 15 | 1010.8 |
| 20260904193007 | 92 | 227 | 0.0 | 0.0 | 0.00 | 1.35 | 1.35 | 13 | 1010.9 |
| 20260904192511 | 92 | 227 | 0.0 | 5.0 | 0.00 | 1.35 | 1.35 | 12 | 1010.8 |
| 20260904192007 | 92 | 227 | 0.0 | 5.0 | 0.00 | 1.35 | 1.35 | 12 | 1010.9 |
| 20260904191504 | 91 | 229 | 0.0 | 4.0 | 0.00 | 1.35 | 1.35 | 10 | 1010.9 |
| 20260904190949 | 0 | 0.0 | 0.0 | 0.00 | 1.35 | 1.35 | 1011.0 | ||
| 20260904190409 | 0 | 0.0 | 0.0 | 0.00 | 1.35 | 1.35 | 1011.1 | ||
| 20260904185906 | 0 | 0.0 | 0.0 | 0.00 | 1.35 | 1.35 | 1011.2 |